Retour au catalogue

ONEWEB-0424

ActifCommunicationsPO
NORAD 50497·PAYLOAD·🇬🇧 United Kingdom

Lancé Dec 27, 2021 depuis Baikonur Cosmodrome

Loading…

Prochains Passages (prochaines 24 heures)

TLE

FraisSource: CelesTrak SupGP

Époque: Sep 14, 2026, 19:42 UTC

1 50497C 21132AE  26257.82101111 -.00002833  00000+0 -71951-2 0  2570
2 50497  87.9164 317.6490 0001619 103.4282 295.5904 13.18687769    10

Suivez ONEWEB-0424 en temps réel avec AllMySat

Download on the App Store